1504386000.64,3928,20.13,73540.3,1.57,0.83,0.83,0,*4E
1504386001.85,3929,20.13,73540.3,1.57,0.83,0.83,0,*4F
1504386003.06,3930,20.13,73536.0,1.57,0.83,0.83,0,*47
1504386004.31,3931,20.13,73538.8,1.59,0.83,0.83,0,*48
1504386005.52,3932,20.13,73540.5,1.57,0.87,0.87,0,*45
1504386006.71,3933,20.13,73542.5,1.57,0.87,0.97,0,*45
1504386007.93,3934,20.13,73538.8,1.57,0.91,0.87,0,*44
1504386009.15,3935,20.13,73542.3,1.59,1.01,0.91,0,*74
1504386010.35,3936,20.13,73538.0,1.59,1.01,0.97,0,*71
1504386011.55,3937,20.13,73542.0,1.59,0.97,1.01,0,*70
1504386012.74,3938,20.13,73538.5,1.59,1.01,0.97,0,*7F
1504386013.9,3939,20.13,73540.3,1.57,0.97,0.97,0,*4E
1504386015.13,3940,20.13,73540.3,1.59,0.97,0.91,0,*48
1504386016.35,3941,20.13,73536.8,1.59,0.97,0.91,0,*49
1504386017.54,3942,20.13,73538.5,1.59,0.97,0.97,0,*4C
1504386018.74,3943,20.13,73538.3,1.59,1.01,0.97,0,*73
1504386019.94,3944,20.13,73536.8,1.59,1.01,1.01,0,*4A
1504386021.15,3945,20.13,73538.8,1.61,0.63,0.55,0,*45
1504386022.36,3946,20.13,73540.0,1.61,0.51,0.41,0,*42
1504386023.56,3947,20.13,73536.8,1.61,0.63,0.67,0,*46
1504386024.8,3948,20.13,73538.8,1.59,0.71,0.71,0,*46
1504386026.04,3949,20.13,73538.5,1.59,0.75,0.75,0,*47
1504386027.27,3950,20.13,73538.0,1.59,0.75,0.83,0,*46
1504386028.52,3951,20.13,73534.0,1.59,0.83,0.83,0,*4E
1504386029.76,3952,20.13,73538.8,1.59,0.87,0.83,0,*49
1504386031.01,3953,20.13,73538.3,1.59,0.87,0.87,0,*4C
1504386032.26,3954,20.13,73538.5,1.59,0.87,0.91,0,*4C
1504386033.5,3955,20.13,73540.0,1.59,0.87,0.87,0,*4A
1504386034.75,3956,20.13,73536.3,1.59,0.83,0.87,0,*4D
1504386035.99,3957,20.13,73534.8,1.59,0.71,0.75,0,*4C
1504386037.22,3958,20.13,73534.5,1.59,0.63,0.71,0,*44
1504386038.46,3959,20.13,73536.8,1.59,0.63,0.71,0,*45
1504386039.69,3960,20.13,73536.8,1.59,0.75,0.83,0,*45
1504386040.93,3961,20.13,73536.3,1.59,0.75,0.75,0,*4D
1504386042.17,3962,20.13,73536.8,1.59,0.83,0.75,0,*47
1504386043.41,3963,20.13,73538.3,1.59,0.75,0.75,0,*4F
1504386044.65,3964,20.13,73538.5,1.59,0.75,0.75,0,*48
1504386045.89,3965,20.13,73538.0,1.59,0.75,0.83,0,*40
1504386047.1,3966,20.13,73538.5,1.57,0.87,0.83,0,*40
1504386048.31,3967,20.13,73536.3,1.57,0.37,0.37,0,*45
1504386049.54,3968,20.13,73538.3,1.57,-1.35,-1.09,0,*45
1504386050.71,3969,20.13,73538.5,1.57,-0.69,-0.49,0,*49
1504386051.9,3970,20.13,73536.0,1.57,-0.11,-0.11,0,*43
1504386053.1,3971,20.13,73536.5,1.57,0.13,0.37,0,*44
1504386054.31,3972,20.13,73536.8,1.57,0.51,0.59,0,*49
1504386055.55,3973,20.13,73538.3,1.59,0.71,0.71,0,*4E
1504386056.76,3974,20.13,73536.3,1.57,0.83,0.83,0,*47
1504386057.98,3975,20.13,73536.0,1.57,0.87,0.91,0,*41
1504386059.23,3976,20.13,73532.3,1.59,0.91,0.87,0,*4C
1504386060.43,3977,20.13,73536.0,1.59,1.01,0.97,0,*74
1504386061.63,3978,20.13,73534.8,1.59,1.01,1.01,0,*45
1504386062.79,3979,20.13,73534.5,1.57,1.01,1.01,0,*4A
1504386064.02,3980,20.13,73534.8,1.59,0.97,0.91,0,*44
1504386065.24,3981,20.13,73538.8,1.59,0.97,0.87,0,*42
1504386066.46,3982,20.13,73538.8,1.59,0.91,0.97,0,*46
1504386067.66,3983,20.13,73534.8,1.59,0.97,1.01,0,*7F
1504386068.91,3984,20.13,73534.5,1.59,1.09,1.13,0,*4D
1504386070.14,3985,20.13,73536.0,1.61,1.13,1.13,0,*4C
1504386071.37,3986,20.13,73534.0,1.61,1.17,1.17,0,*4F
1504386072.59,3987,20.13,73536.8,1.61,1.25,1.25,0,*4E
1504386073.82,3988,20.13,73538.8,1.65,1.33,1.33,0,*45
1504386075.05,3989,20.13,73536.5,1.65,1.29,1.33,0,*4F
1504386076.27,3990,20.13,73538.5,1.65,1.29,1.29,0,*4C
1504386077.5,3991,20.13,73536.0,1.65,1.29,1.29,0,*4D
1504386078.72,3992,20.13,73536.3,1.65,1.29,1.29,0,*4E
1504386079.97,3993,20.13,73536.5,1.67,1.29,1.33,0,*46
1504386081.22,3994,20.13,73532.0,1.67,1.29,1.29,0,*4A
1504386082.48,3995,20.13,73536.5,1.67,1.33,1.33,0,*4B
1504386083.71,3996,20.13,73534.5,1.69,1.37,1.33,0,*42
1504386084.94,3997,20.13,73538.8,1.69,1.33,1.37,0,*43
1504386086.19,3998,20.13,73536.3,1.71,1.33,1.37,0,*45
1504386087.45,3999,20.13,73536.8,1.71,1.37,1.33,0,*44
1504386088.71,4000,20.13,73534.5,1.71,1.37,1.37,0,*4E
1504386089.96,4001,20.13,73538.0,1.71,1.43,1.37,0,*4C
1504386091.2,4002,20.13,73534.0,1.71,1.43,1.43,0,*4C
1504386092.44,4003,20.13,73536.8,1.71,1.43,1.47,0,*49
1504386093.67,4004,20.13,73536.5,1.73,1.47,1.47,0,*48
1504386094.91,4005,20.13,73536.8,1.73,1.47,1.47,0,*49
1504386096.15,4006,20.13,73534.8,1.73,1.47,1.47,0,*4A
1504386097.37,4007,20.13,73534.3,1.73,1.41,1.47,0,*4D
1504386098.53,4008,20.13,73534.3,1.75,1.41,1.41,0,*42
1504386099.7,4009,20.13,73536.0,1.75,1.41,1.41,0,*43
1504386100.92,4010,20.13,73536.5,1.77,1.43,1.41,0,*4B
1504386102.12,4011,20.13,73532.5,1.75,1.37,1.41,0,*4B
1504386103.29,4012,20.13,73534.5,1.75,1.41,1.41,0,*49
1504386104.51,4013,20.13,73534.3,1.77,1.41,1.43,0,*48
1504386105.7,4014,20.13,73532.5,1.77,1.41,1.41,0,*4D
1504386106.92,4015,20.13,73538.0,1.77,1.41,1.43,0,*4E
1504386108.14,4016,20.13,73536.5,1.77,1.43,1.41,0,*4D
1504386109.33,4017,20.13,73534.0,1.77,1.41,1.41,0,*4E
1504386110.57,4018,20.13,73534.5,1.81,1.43,1.47,0,*4C
1504386111.76,4019,20.13,73532.5,1.79,1.41,1.43,0,*4C
1504386112.93,4020,20.13,73534.8,1.79,1.41,1.41,0,*44
1504386114.17,4021,20.13,73534.0,1.81,1.43,1.43,0,*42
1504386115.36,4022,20.13,73534.3,1.79,1.41,1.43,0,*44
1504386116.53,4023,20.13,73534.0,1.79,1.41,1.41,0,*47
1504386117.76,4024,20.13,73534.5,1.79,1.33,1.33,0,*40
1504386118.97,4025,20.13,73534.8,1.79,1.41,1.33,0,*44
1504386120.14,4026,20.13,73532.3,1.79,1.05,1.05,0,*42
1504386121.37,4027,20.13,73534.0,1.81,1.09,1.05,0,*48
1504386122.6,4028,20.13,73532.8,1.79,1.09,1.09,0,*4C
1504386123.83,4029,20.13,73534.0,1.79,1.17,1.17,0,*4D
1504386125.08,4030,20.13,73532.3,1.81,1.25,1.25,0,*42
1504386126.31,4031,20.13,73534.3,1.79,1.29,1.21,0,*4C
1504386127.55,4032,20.13,73532.5,1.79,1.33,1.33,0,*47
1504386128.8,4033,20.13,73530.8,1.81,1.37,1.33,0,*45
1504386130.05,4034,20.13,73530.0,1.81,1.43,1.33,0,*41
1504386131.29,4035,20.13,73532.8,1.81,1.43,1.37,0,*44
1504386132.53,4036,20.13,73532.3,1.81,1.43,1.43,0,*44
1504386133.77,4037,20.13,73530.8,1.81,1.43,1.43,0,*45
1504386135.01,4038,20.13,73528.3,1.81,1.47,1.37,0,*4D
1504386136.26,4039,20.13,73532.3,1.81,1.43,1.37,0,*48
1504386137.49,4040,20.13,73534.0,1.81,1.43,1.43,0,*45
1504386138.73,4041,20.13,73530.0,1.81,1.47,1.43,0,*40
1504386139.94,4042,20.13,73534.5,1.83,1.47,1.47,0,*45
1504386141.16,4043,20.13,73528.3,1.83,1.47,1.47,0,*44
1504386142.32,4044,20.13,73530.0,1.83,1.41,1.41,0,*43
1504386143.51,4045,20.13,73528.5,1.83,1.47,1.41,0,*44
1504386144.7,4046,20.13,73532.3,1.83,0.91,1.01,0,*79
1504386145.88,4047,20.13,73528.8,1.83,1.01,1.01,0,*40
1504386147.1,4048,20.13,73530.0,1.83,1.09,1.13,0,*44
1504386148.33,4049,20.13,73532.0,1.83,1.29,1.25,0,*42
1504386149.56,4050,20.13,73528.8,1.83,1.29,1.29,0,*46
1504386150.82,4051,20.13,73530.0,1.85,1.37,1.37,0,*41
1504386151.98,4052,20.13,73528.5,1.83,1.41,1.41,0,*44
1504386153.18,4053,20.13,73528.8,1.83,1.37,1.41,0,*44
1504386154.4,4054,20.13,73528.0,1.85,1.41,1.37,0,*45
1504386155.6,4055,20.13,73532.3,1.83,1.41,1.37,0,*42
1504386156.78,4056,20.13,73534.8,1.85,1.41,1.41,0,*46
1504386157.95,4057,20.13,73532.0,1.83,1.41,1.41,0,*41
1504386159.16,4058,20.13,73530.8,1.85,1.41,1.47,0,*4E
1504386160.38,4059,20.13,73528.8,1.83,1.47,1.47,0,*4F
1504386161.62,4060,20.13,73532.3,1.85,1.47,1.51,0,*44
1504386162.86,4061,20.13,73530.0,1.85,1.47,1.47,0,*42
1504386164.1,4062,20.13,73532.8,1.85,1.51,1.47,0,*46
1504386165.33,4063,20.13,73530.8,1.85,1.51,1.47,0,*47
1504386166.57,4064,20.13,73528.8,1.85,0.51,0.91,0,*4B
1504386167.75,4065,20.13,73528.8,1.83,-0.81,-0.33,0,*49
1504386168.93,4066,20.13,73530.5,1.79,-0.29,-0.15,0,*49
1504386170.17,4067,20.13,73530.8,1.77,0.71,0.71,0,*49
1504386171.38,4068,20.13,73530.5,1.77,1.01,1.05,0,*42
1504386172.64,4069,20.13,73530.3,1.77,1.17,1.21,0,*42
1504386173.87,4070,20.13,73530.8,1.77,0.67,0.71,0,*48
1504386175.1,4071,20.13,73530.5,1.77,0.67,0.67,0,*4E
1504386176.32,4072,20.13,73532.5,1.75,0.59,0.55,0,*43
1504386177.56,4073,20.13,73528.3,1.77,0.59,0.47,0,*43
1504386178.76,4074,20.13,73530.5,1.75,0.41,0.33,0,*4C
1504386179.97,4075,20.13,73524.0,1.75,0.17,0.13,0,*4C
1504386181.19,4076,20.13,73528.5,1.71,-0.11,-0.23,0,*4E
1504386182.42,4077,20.13,73528.0,1.71,-0.23,-0.37,0,*4B
1504386183.65,4078,20.13,73526.3,1.71,-0.11,-0.23,0,*40
1504386184.9,4079,20.13,73528.0,1.71,-1.13,-1.13,0,*40
1504386186.11,4080,20.13,73526.5,1.67,-0.37,-0.41,0,*40
1504386187.29,4081,20.13,73530.3,1.67,0.09,0.05,0,*4C
1504386188.52,4082,20.13,73528.8,1.67,0.21,0.21,0,*43
1504386189.72,4083,20.13,73530.8,1.65,0.33,0.37,0,*44
1504386190.94,4084,20.13,73528.0,1.69,0.51,0.47,0,*4C
1504386192.17,4085,20.13,73530.0,1.67,0.59,0.59,0,*44
1504386193.39,4086,20.13,73530.0,1.67,0.67,0.67,0,*47
1504386194.62,4087,20.13,73528.0,1.67,0.83,0.67,0,*4C
1504386195.85,4088,20.13,73530.3,1.67,0.83,0.79,0,*4C
1504386197.09,4089,20.13,73528.5,1.67,0.83,0.79,0,*4D
1504386198.33,4090,20.13,73530.0,1.67,0.91,0.83,0,*43
1504386199.57,4091,20.13,73530.3,1.67,0.79,0.71,0,*49
1504386200.78,4092,20.13,73526.3,1.69,0.87,0.83,0,*48
1504386202.0,4093,20.13,73526.5,1.69,0.87,0.87,0,*4D
1504386203.2,4094,20.13,73526.0,1.69,0.95,0.95,0,*4A
1504386204.43,4095,20.13,73528.0,1.71,0.95,0.95,0,*42
1504386205.65,4096,20.13,73524.3,1.71,0.95,1.01,0,*7D
1504386206.84,4097,20.13,73524.8,1.71,0.97,0.97,0,*40
1504386208.03,4098,20.13,73524.8,1.73,1.01,1.01,0,*4D
1504386209.22,4099,20.13,73526.3,1.71,0.97,0.97,0,*4E
1504386210.41,4100,20.13,73526.0,1.71,0.97,0.97,0,*4F
1504386211.6,4101,20.13,73526.3,1.73,1.01,1.01,0,*4C
1504386212.79,4102,20.13,73524.8,1.71,0.97,0.97,0,*4D
1504386213.99,4103,20.13,73524.5,1.73,1.01,1.05,0,*4A
1504386215.18,4104,20.13,73526.5,1.73,1.01,1.05,0,*4D
1504386216.38,4105,20.13,73526.3,1.73,1.01,1.01,0,*48
1504386217.57,4106,20.13,73526.5,1.73,1.01,1.01,0,*4B
1504386218.77,4107,20.13,73522.8,1.73,1.01,1.05,0,*4E
1504386219.96,4108,20.13,73528.0,1.73,1.01,1.01,0,*45
1504386221.16,4109,20.13,73528.5,1.73,1.05,1.05,0,*44
1504386222.35,4110,20.13,73524.0,1.73,1.01,1.01,0,*4C
1504386223.53,4111,20.13,73524.8,1.75,1.01,1.05,0,*4F
1504386224.79,4112,20.13,73524.5,1.77,1.09,1.09,0,*4A
1504386225.96,4113,20.13,73522.3,1.75,1.05,1.01,0,*4D
1504386227.14,4114,20.13,73526.3,1.75,1.01,1.05,0,*4A
1504386228.31,4115,20.13,73524.3,1.75,1.01,1.01,0,*4F
1504386229.54,4116,20.13,73522.8,1.77,1.09,1.05,0,*42
1504386230.72,4117,20.13,73522.8,1.75,1.05,1.01,0,*49
1504386231.89,4118,20.13,73524.8,1.75,1.01,1.01,0,*42
1504386233.1,4119,20.13,73522.8,1.77,1.05,1.05,0,*41
1504386234.27,4120,20.13,73522.3,1.75,1.01,1.01,0,*49
1504386235.47,4121,20.13,73526.5,1.77,1.05,1.05,0,*4A
1504386236.7,4122,20.13,73526.0,1.77,1.09,1.05,0,*45
1504386237.9,4123,20.13,73524.5,1.77,1.05,1.05,0,*48
1504386239.14,4124,20.13,73522.0,1.77,1.09,1.05,0,*43
1504386240.34,4125,20.13,73524.3,1.77,1.05,1.05,0,*4E
1504386241.54,4126,20.13,73522.5,1.77,1.05,1.05,0,*4D
1504386242.71,4127,20.13,73520.5,1.75,1.01,1.01,0,*4E
1504386243.89,4128,20.13,73522.0,1.75,1.01,1.05,0,*45
1504386245.12,4129,20.13,73522.8,1.77,1.05,1.09,0,*4E
1504386246.32,4130,20.13,73522.5,1.77,1.05,1.05,0,*4A
1504386247.5,4131,20.13,73522.0,1.75,1.05,1.05,0,*49
1504386248.73,4132,20.13,73524.3,1.77,1.05,1.09,0,*44
1504386249.96,4133,20.13,73520.3,1.77,1.09,1.05,0,*45
1504386251.16,4134,20.13,73518.0,1.77,1.05,1.05,0,*4E
1504386252.36,4135,20.13,73524.0,1.77,1.05,1.05,0,*4F
1504386253.54,4136,20.13,73522.8,1.75,1.01,1.01,0,*4E
1504386254.74,4137,20.13,73520.5,1.77,1.05,1.05,0,*4D
1504386255.97,4138,20.13,73520.8,1.77,1.09,1.05,0,*4E
1504386257.2,4139,20.13,73520.5,1.77,1.05,1.09,0,*4F
1504386258.46,4140,20.13,73520.3,1.77,1.09,1.09,0,*4D
1504386259.69,4141,20.13,73520.3,1.77,1.09,1.05,0,*40
1504386260.92,4142,20.13,73520.8,1.79,1.09,1.09,0,*41
1504386262.15,4143,20.13,73518.5,1.79,1.09,1.09,0,*40
1504386263.39,4144,20.13,73520.0,1.79,1.17,1.09,0,*48
1504386264.64,4145,20.13,73520.3,1.77,1.09,1.09,0,*48
1504386265.9,4146,20.13,73524.0,1.81,1.13,1.09,0,*49
1504386267.1,4147,20.13,73522.5,1.79,1.09,1.05,0,*48
1504386268.34,4148,20.13,73522.8,1.79,1.09,1.09,0,*4B
1504386269.59,4149,20.13,73520.0,1.81,1.13,1.13,0,*4D
1504386270.84,4150,20.13,73520.0,1.81,1.13,1.13,0,*45
1504386272.08,4151,20.13,73522.8,1.79,1.09,1.09,0,*43
1504386273.28,4152,20.13,73522.3,1.79,1.13,1.05,0,*47
1504386274.54,4153,20.13,73520.3,1.81,1.13,1.09,0,*4D
1504386275.74,4154,20.13,73520.8,1.79,1.05,1.09,0,*4A
1504386276.95,4155,20.13,73522.3,1.79,1.05,1.09,0,*4B
1504386278.2,4156,20.13,73516.8,1.81,1.13,1.13,0,*43
1504386279.45,4157,20.13,73522.5,1.81,1.13,1.13,0,*42
1504386280.7,4158,20.13,73522.3,1.81,1.09,1.13,0,*46
1504386281.93,4159,20.13,73522.5,1.79,1.09,1.09,0,*4B
1504386283.19,4160,20.13,73520.8,1.81,1.13,1.13,0,*46
1504386284.44,4161,20.13,73522.5,1.81,1.09,1.09,0,*47
1504386285.64,4162,20.13,73520.5,1.79,1.05,1.09,0,*4F
1504386286.9,4163,20.13,73520.0,1.81,1.13,1.13,0,*45
1504386288.13,4164,20.13,73520.3,1.79,1.09,1.17,0,*4A
1504386289.36,4165,20.13,73520.8,1.79,1.09,1.13,0,*4F
1504386290.61,4166,20.13,73520.3,1.81,1.13,1.13,0,*40
1504386291.86,4167,20.13,73518.5,1.81,1.13,1.13,0,*41
1504386293.11,4168,20.13,73520.5,1.81,1.13,1.13,0,*4E
1504386294.34,4169,20.13,73522.0,1.83,1.17,1.17,0,*4D
1504386295.57,4170,20.13,73520.3,1.79,1.09,1.09,0,*40
1504386296.83,4171,20.13,73520.5,1.81,1.09,1.09,0,*46
1504386298.03,4172,20.13,73522.0,1.79,1.09,1.05,0,*4E
1504386299.29,4173,20.13,73520.3,1.81,1.13,1.09,0,*4F
1504386300.54,4174,20.13,73520.0,1.81,1.09,1.09,0,*43
1504386301.79,4175,20.13,73522.8,1.81,1.09,1.09,0,*42
1504386302.99,4176,20.13,73520.3,1.79,1.09,1.05,0,*4A
1504386304.25,4177,20.13,73522.8,1.81,1.09,1.09,0,*40
1504386305.5,4178,20.13,73522.3,1.81,1.09,1.09,0,*4F
1504386306.75,4179,20.13,73520.0,1.81,1.09,1.09,0,*4E
1504386308.0,4180,20.13,73520.5,1.81,1.13,1.09,0,*43
1504386309.23,4181,20.13,73520.0,1.81,1.09,1.05,0,*45
1504386310.4,4182,20.13,73520.3,1.79,1.05,1.05,0,*4D
1504386311.66,4183,20.13,73522.0,1.81,1.09,1.09,0,*4B
1504386312.86,4184,20.13,73520.8,1.79,1.09,1.05,0,*47
1504386314.11,4185,20.13,73522.8,1.81,1.09,1.13,0,*46
1504386315.31,4186,20.13,73522.5,1.79,1.05,1.09,0,*45
1504386316.57,4187,20.13,73520.0,1.81,1.13,1.13,0,*4F
1504386317.82,4188,20.13,73524.0,1.81,1.13,1.13,0,*40
1504386319.07,4189,20.13,73522.5,1.81,1.13,1.13,0,*41
1504386320.33,4190,20.13,73522.5,1.81,1.13,1.13,0,*49
1504386321.58,4191,20.13,73526.5,1.81,1.09,1.13,0,*43
1504386322.83,4192,20.13,73522.0,1.81,1.09,1.09,0,*4B
1504386324.08,4193,20.13,73522.0,1.81,1.13,1.13,0,*4A
1504386325.33,4194,20.13,73520.0,1.81,1.21,1.13,0,*4C
1504386326.59,4195,20.13,73520.8,1.81,1.09,1.21,0,*46
1504386327.84,4196,20.13,73522.5,1.81,1.13,1.13,0,*4F
1504386329.04,4197,20.13,73522.0,1.79,1.09,1.05,0,*45
1504386330.29,4198,20.13,73522.5,1.81,1.09,1.13,0,*4A
1504386331.55,4199,20.13,73518.5,1.81,1.13,1.13,0,*40
1504386332.8,4200,20.13,73516.8,1.81,1.09,1.13,0,*48
1504386334.05,4201,20.13,73520.3,1.81,1.13,1.13,0,*42
1504386335.3,4202,20.13,73522.8,1.81,1.09,1.13,0,*4A
1504386336.55,4203,20.13,73518.5,1.81,1.13,1.13,0,*40
1504386337.8,4204,20.13,73518.8,1.81,1.09,1.09,0,*47
1504386339.01,4205,20.13,73518.5,1.79,1.13,1.05,0,*46
1504386340.26,4206,20.13,73522.0,1.81,1.13,1.13,0,*45
1504386341.51,4207,20.13,73520.8,1.81,1.09,1.25,0,*4A
1504386342.76,4208,20.13,73520.5,1.81,1.09,1.13,0,*40
1504386344.01,4209,20.13,73520.3,1.81,1.09,1.13,0,*41
1504386345.27,4210,20.13,73520.3,1.81,1.13,1.09,0,*49
1504386346.52,4211,20.13,73524.8,1.81,1.13,1.13,0,*43
1504386347.77,4212,20.13,73520.3,1.81,1.13,1.09,0,*4B
1504386349.03,4213,20.13,73520.3,1.81,1.09,1.09,0,*41
1504386350.28,4214,20.13,73520.8,1.81,1.09,1.09,0,*46
1504386351.53,4215,20.13,73516.8,1.81,1.09,1.09,0,*47
1504386352.7,4216,20.13,73516.3,1.79,1.05,1.05,0,*43
1504386353.96,4217,20.13,73522.3,1.81,1.13,1.13,0,*45
1504386355.21,4218,20.13,73518.5,1.81,1.09,1.13,0,*41
1504386356.46,4219,20.13,73522.0,1.81,1.09,1.13,0,*40
1504386357.71,4220,20.13,73522.3,1.81,1.13,1.09,0,*4A
1504386358.97,4221,20.13,73522.5,1.81,1.13,1.13,0,*40
1504386360.22,4222,20.13,73518.8,1.81,1.21,1.09,0,*49
1504386361.47,4223,20.13,73522.0,1.81,1.13,1.13,0,*42
1504386362.73,4224,20.13,73520.3,1.81,1.21,1.13,0,*44
1504386363.95,4225,20.13,73520.8,1.83,1.17,1.17,0,*46
1504386365.2,4226,20.13,73520.3,1.81,1.09,1.09,0,*47
1504386366.46,4227,20.13,73522.0,1.81,1.13,1.13,0,*46
1504386367.71,4228,20.13,73522.5,1.81,1.13,1.13,0,*49
1504386368.96,4229,20.13,73520.8,1.81,1.09,1.13,0,*43
1504386370.21,4230,20.13,73518.8,1.81,1.13,1.13,0,*40
1504386371.47,4231,20.13,73520.3,1.81,1.13,1.13,0,*41
1504386372.72,4232,20.13,73522.5,1.81,1.13,1.13,0,*42
1504386373.97,4233,20.13,73516.5,1.81,1.13,1.13,0,*43
1504386375.22,4234,20.13,73520.3,1.81,1.21,1.13,0,*45
1504386376.48,4235,20.13,73520.3,1.81,1.13,1.13,0,*45
1504386377.73,4236,20.13,73520.5,1.81,1.09,1.13,0,*4D
1504386378.98,4237,20.13,73520.5,1.81,1.13,1.13,0,*47
1504386380.23,4238,20.13,73522.0,1.81,1.13,1.13,0,*48
1504386381.47,4239,20.13,73520.0,1.79,1.09,1.21,0,*44
1504386382.72,4240,20.13,73520.8,1.81,1.13,1.13,0,*47
1504386383.97,4241,20.13,73520.3,1.81,1.13,1.13,0,*46
1504386385.23,4242,20.13,73522.3,1.81,1.13,1.09,0,*4E
1504386386.46,4243,20.13,73522.0,1.83,1.13,1.17,0,*42
1504386387.71,4244,20.13,73524.8,1.81,1.13,1.13,0,*43
1504386388.96,4245,20.13,73520.0,1.81,1.21,1.09,0,*48
1504386390.22,4246,20.13,73520.0,1.81,1.13,1.13,0,*41
1504386391.47,4247,20.13,73522.8,1.81,1.21,1.13,0,*41
1504386392.73,4248,20.13,73522.3,1.81,1.13,1.09,0,*44
1504386393.98,4249,20.13,73522.5,1.81,1.21,1.09,0,*44
1504386395.23,4250,20.13,73522.5,1.81,1.09,1.09,0,*46
1504386396.46,4251,20.13,73522.5,1.83,1.17,1.17,0,*45
1504386397.71,4252,20.13,73524.5,1.81,1.13,1.13,0,*44
1504386398.97,4253,20.13,73524.5,1.81,1.13,1.09,0,*4E
1504386400.22,4254,20.13,73524.5,1.81,1.09,1.09,0,*42
1504386401.47,4255,20.13,73526.5,1.81,1.13,1.09,0,*48
1504386402.7,4256,20.13,73520.3,1.83,1.17,1.17,0,*42
1504386403.95,4257,20.13,73524.0,1.81,1.13,1.13,0,*41
1504386405.21,4258,20.13,73520.3,1.81,1.13,1.21,0,*4F
1504386406.46,4259,20.13,73522.0,1.81,1.13,1.13,0,*4F
1504386407.72,4260,20.13,73522.8,1.81,1.13,1.21,0,*44
1504386408.97,4261,20.13,73520.5,1.81,1.09,1.09,0,*44
1504386410.22,4262,20.13,73524.5,1.81,1.13,1.09,0,*4C
1504386411.48,4263,20.13,73522.0,1.81,1.13,1.13,0,*46
1504386412.73,4264,20.13,73522.0,1.81,1.21,1.09,0,*4B
1504386413.98,4265,20.13,73520.5,1.81,1.21,1.13,0,*41
1504386415.24,4266,20.13,73518.0,1.81,1.21,1.13,0,*42
1504386416.47,4267,20.13,73526.3,1.83,1.29,1.29,0,*40
1504386417.69,4268,20.13,73526.8,1.83,1.17,1.25,0,*4E
1504386418.92,4269,20.13,73524.8,1.83,1.25,1.17,0,*4F
1504386420.17,4270,20.13,73522.0,1.81,1.21,1.21,0,*44
1504386421.42,4271,20.13,73524.5,1.81,1.25,1.21,0,*41
1504386422.68,4272,20.13,73526.0,1.81,1.21,1.21,0,*46
1504386423.93,4273,20.13,73522.8,1.81,1.21,1.21,0,*47
1504386425.16,4274,20.13,73524.5,1.83,1.25,1.29,0,*4E
1504386426.38,4275,20.13,73524.5,1.83,1.17,1.13,0,*47
1504386427.61,4276,20.13,73520.0,1.83,1.17,1.17,0,*40
1504386428.84,4277,20.13,73522.3,1.83,1.13,1.17,0,*45
1504386430.07,4278,20.13,73524.5,1.83,1.13,1.13,0,*4E
1504386431.3,4279,20.13,73524.8,1.83,1.13,1.13,0,*4F
1504386432.55,4280,20.13,73520.3,1.81,1.13,1.13,0,*4B
1504386433.8,4281,20.13,73526.3,1.81,1.13,1.13,0,*4A
1504386435.06,4282,20.13,73522.0,1.81,1.13,1.21,0,*48
1504386436.29,4283,20.13,73522.5,1.79,1.21,1.17,0,*4A
1504386437.55,4284,20.13,73522.5,1.81,1.21,1.21,0,*4F
1504386438.81,4285,20.13,73518.5,1.81,1.13,1.21,0,*4F
1504386440.06,4286,20.06,73518.3,1.81,1.21,1.21,0,*4D
1504386441.32,4287,20.13,73522.0,1.81,1.13,1.25,0,*49
1504386442.54,4288,20.13,73520.8,1.83,1.25,1.17,0,*40
1504386443.76,4289,20.13,73522.8,1.83,1.17,1.29,0,*4D
1504386444.99,4290,20.13,73522.8,1.83,1.25,1.25,0,*48
1504386446.21,4291,20.13,73524.3,1.83,1.25,1.25,0,*49
1504386447.46,4292,20.13,73524.3,1.81,1.13,1.13,0,*48
1504386448.71,4293,20.13,73522.5,1.81,1.13,1.13,0,*49
1504386449.97,4294,20.13,73522.3,1.81,1.13,1.13,0,*4E
1504386451.22,4295,20.13,73520.3,1.81,1.21,1.21,0,*4F
1504386452.48,4296,20.13,73520.0,1.81,1.21,1.09,0,*46
1504386453.71,4297,20.13,73520.0,1.83,1.21,1.17,0,*4A
1504386454.93,4298,20.13,73518.3,1.83,1.25,1.17,0,*41
1504386456.15,4299,20.13,73522.0,1.83,1.25,1.25,0,*41
1504386457.41,4300,20.13,73522.3,1.81,1.21,1.21,0,*42
1504386458.66,4301,20.13,73522.8,1.81,1.25,1.21,0,*47
1504386459.88,4302,20.13,73520.5,1.83,1.25,1.25,0,*42
1504386461.1,4303,20.13,73522.8,1.83,1.25,1.29,0,*4F
1504386462.33,4304,20.13,73520.3,1.83,1.13,1.17,0,*40
1504386463.56,4305,20.13,73520.5,1.83,1.25,1.17,0,*44
1504386464.78,4306,20.13,73520.5,1.83,1.25,1.17,0,*47
1504386466.0,4307,20.13,73522.8,1.83,1.25,1.13,0,*42
1504386467.22,4308,20.13,73520.8,1.83,1.25,1.17,0,*49
1504386468.45,4309,20.13,73518.5,1.83,1.17,1.13,0,*4D
1504386469.68,4310,20.13,73524.0,1.83,1.17,1.13,0,*45
1504386470.9,4311,20.13,73522.8,1.83,1.17,1.25,0,*41
1504386472.13,4312,20.13,73522.0,1.83,1.17,1.13,0,*47
1504386473.35,4313,20.13,73518.3,1.83,1.25,1.17,0,*43
1504386474.58,4314,20.13,73520.5,1.83,1.17,1.17,0,*45
1504386475.8,4315,20.13,73520.8,1.83,1.25,1.25,0,*44
1504386477.03,4316,20.13,73522.0,1.83,1.17,1.29,0,*4A
1504386478.25,4317,20.13,73518.5,1.83,1.17,1.25,0,*47
1504386479.47,4318,20.13,73522.5,1.83,1.25,1.25,0,*49
1504386480.7,4319,20.13,73520.3,1.83,1.29,1.25,0,*44
1504386481.92,4320,20.13,73522.0,1.83,1.25,1.25,0,*42
1504386483.15,4321,20.13,73522.3,1.83,1.29,1.25,0,*4F
1504386484.37,4322,20.13,73522.5,1.83,1.25,1.25,0,*40
1504386485.6,4323,20.13,73520.3,1.83,1.25,1.25,0,*41
1504386486.82,4324,20.13,73520.8,1.83,1.25,1.25,0,*46
1504386488.04,4325,20.13,73522.0,1.83,1.25,1.17,0,*46
1504386489.27,4326,20.13,73522.3,1.83,1.17,1.25,0,*45
1504386490.52,4327,20.13,73518.0,1.85,1.17,1.17,0,*43
1504386491.77,4328,20.13,73518.8,1.85,1.17,1.17,0,*4C
1504386492.99,4329,20.13,73522.5,1.83,1.25,1.17,0,*4A
1504386494.22,4330,20.13,73520.0,1.83,1.17,1.25,0,*42
1504386495.44,4331,20.13,73520.3,1.83,1.29,1.25,0,*4E
1504386496.69,4332,20.13,73518.5,1.85,1.25,1.25,0,*47
1504386497.91,4333,20.13,73522.0,1.83,1.25,1.25,0,*40
1504386499.13,4334,20.13,73522.8,1.83,1.25,1.25,0,*47
1504386500.38,4335,20.13,73520.8,1.85,1.29,1.25,0,*4C
1504386501.64,4336,20.13,73524.3,1.85,1.29,1.29,0,*43
1504386502.89,4337,20.13,73520.3,1.85,1.29,1.29,0,*42
1504386504.14,4338,20.13,73524.5,1.85,1.25,1.29,0,*41
1504386505.39,4339,20.13,73518.8,1.85,1.29,1.25,0,*40
1504386506.61,4340,20.13,73518.5,1.83,1.25,1.29,0,*48
1504386507.83,4341,20.13,73520.3,1.83,1.25,1.17,0,*44
1504386509.08,4342,20.06,73516.0,1.85,1.17,1.25,0,*41
1504386510.3,4343,20.13,73522.5,1.83,1.25,1.25,0,*47
1504386511.55,4344,20.13,73518.5,1.85,1.17,1.25,0,*47
1504386512.8,4345,20.13,73524.0,1.85,1.25,1.25,0,*47
1504386514.03,4346,20.13,73522.0,1.83,1.13,1.17,0,*46
1504386515.25,4347,20.13,73520.3,1.83,1.17,1.13,0,*47
1504386516.48,4348,20.13,73518.5,1.83,1.13,1.13,0,*4C
1504386517.71,4349,20.13,73518.8,1.83,1.13,1.13,0,*4D
1504386518.94,4350,20.13,73518.8,1.83,1.17,1.17,0,*45
1504386520.19,4351,20.13,73516.8,1.85,1.13,1.13,0,*42
1504386521.42,4352,20.13,73520.8,1.83,1.13,1.13,0,*47
1504386522.65,4353,20.13,73518.0,1.83,1.13,1.13,0,*46
1504386523.88,4354,20.13,73518.8,1.83,1.17,1.17,0,*41
1504386525.11,4355,20.13,73516.8,1.83,1.17,1.13,0,*44
1504386526.36,4356,20.13,73516.3,1.85,1.17,1.17,0,*45
1504386527.61,4357,20.13,73516.0,1.85,1.17,1.17,0,*44
1504386528.83,4358,20.13,73516.8,1.83,1.25,1.25,0,*4D
1504386530.07,4359,20.13,73518.8,1.85,1.25,1.29,0,*46
1504386531.3,4360,20.13,73516.8,1.83,1.25,1.25,0,*46
1504386532.52,4361,20.13,73516.8,1.83,1.25,1.25,0,*47
1504386533.74,4362,20.13,73520.0,1.83,1.25,1.29,0,*48
1504386534.97,4363,20.13,73516.5,1.83,1.29,1.25,0,*49
1504386536.19,4364,20.13,73516.5,1.83,1.25,1.25,0,*42
1504386537.44,4365,20.13,73516.8,1.85,1.29,1.29,0,*45
1504386538.67,4366,20.13,73516.0,1.83,1.37,1.29,0,*4F
1504386539.9,4367,20.13,73514.8,1.83,1.37,1.29,0,*4E
1504386541.15,4368,20.13,73518.8,1.85,1.29,1.29,0,*48
1504386542.4,4369,20.13,73516.5,1.85,1.29,1.29,0,*49
1504386543.66,4370,20.13,73514.3,1.85,1.29,1.29,0,*41
1504386544.89,4371,20.13,73518.8,1.83,1.29,1.29,0,*46
1504386546.13,4372,20.13,73516.0,1.85,1.25,1.25,0,*43